User: anonymous   Login
Location: Bagnara
(41.0500°N, 14.7833°E)
Time: 15:38:41
(UTC+00:00)
Language:

CBERS-1 - Orbit

View from above orbital plane
View from above orbital plane
View from above satellite
View from above satellite

Ground track
Ground track

The orbit data is extracted from the following two-line orbital elements,

1 25940U 99057A   21263.34438551  .00000039  00000-0  29210-4 0  9997
2 25940  98.6631 214.5793 0006189  70.2919 289.8933 14.35553822149080
Epoch (UTC): 20 September 2021 08:15:54
Eccentricity: 0.0006189
inclination: 98.6631°
perigee height: 769 km
apogee height: 777 km
right ascension of ascending node: 214.5793°
argument of perigee: 70.2919°
revolutions per day: 14.35553822
mean anomaly at epoch: 289.8933°
orbit number at epoch: 14908

The dashed part of the orbit path shows where the satellite is in the earth's shadow,  

DLR